This demonstration page uses our WeatherBlox Daily Observations layout. Learn more.

Left ArrowRight Arrow

Hourly Observations for June 6, 2019

Temp ( °F °C ) Dew Point ( °F °C ) Humidity (%) Winds ( mph kmh ) Pressure ( in mb ) Visibility ( mi km ) Precip ( " mm )
12:53 am 00:53 Clear 65 18.3 64 17.8 97 97 N N/A 29.81 1010 10 16 N/A
1:53 am 01:53 Clear 65 18.3 63 17.2 93 93 N N/A 29.82 1010 10 16 N/A
2:53 am 02:53 Clear 65 18.3 63 17.2 93 93 N N/A 29.81 1010 9 14 N/A
3:53 am 03:53 Cloudy 67 19.4 65 18.3 93 93 SSW 3 6 29.82 1010 10 16 N/A
4:04 am 04:04 Cloudy 67 19.4 65 18.3 93 93 N N/A 29.82 1010 10 16 N/A
4:11 am 04:11 Mostly Cloudy 67 19.4 65 18.3 93 93 N N/A 29.82 1010 10 16 N/A
4:53 am 04:53 Clear 64 17.8 63 17.2 96 96 N N/A 29.81 1010 10 16 N/A
5:53 am 05:53 Mostly Clear 62 16.7 61 16.1 96 96 N N/A 29.81 1010 9 14 N/A
6:11 am 06:11 Partly Cloudy with Mist and Fog 63 17.2 62 16.7 97 97 N N/A 29.82 1010 6 10 N/A
6:20 am 06:20 Mostly Cloudy 64 17.8 62 16.7 93 93 N N/A 29.83 1010 7 11 N/A
6:31 am 06:31 Cloudy with Mist and Fog 65 18.3 64 17.8 97 97 W 3 6 29.82 1010 2 3 N/A
6:36 am 06:36 Cloudy with Mist and Fog 66 18.9 65 18.3 96 96 N N/A 29.83 1010 1 1 N/A
6:53 am 06:53 Mostly Cloudy with Fog 66 18.9 65 18.3 96 96 N N/A 29.83 1010 0 0 N/A
7:40 am 07:40 Cloudy with Mist and Fog 66 18.9 66 18.9 100 100 W 5 7 29.85 1011 2 2 N/A
7:53 am 07:53 Cloudy with Mist and Fog 67 19.4 66 18.9 97 97 N N/A 29.85 1011 1 1 N/A
8:01 am 08:01 Cloudy with Mist and Fog 67 19.4 66 18.9 97 97 VRB 3 6 29.86 1011 2 3 N/A
8:13 am 08:13 Cloudy with Mist and Fog 67 19.4 66 18.9 97 97 W 3 6 29.86 1011 3 5 N/A
8:53 am 08:53 Cloudy with Mist and Fog 68 20 67 19.4 96 96 N N/A 29.86 1011 3 5 N/A
9:33 am 09:33 Cloudy 70 21.1 67 19.4 90 90 N N/A 29.86 1011 7 11 N/A
9:48 am 09:48 Mostly Cloudy 72 22 68 20 88 88 N N/A 29.86 1011 8 13 N/A
9:53 am 09:53 Mostly Cloudy 72 22.2 68 20 87 87 N N/A 29.87 1012 9 14 N/A
10:06 am 10:06 Mostly Cloudy 73 22.8 68 20 84 84 ENE 3 6 29.86 1011 9 14 N/A
10:53 am 10:53 Mostly Sunny 75 23.9 68 20 79 79 ESE 5 7 29.87 1012 9 14 N/A
11:53 am 11:53 Sunny 78 25.6 68 20 71 71 E 3 6 29.88 1012 10 16 N/A
12:53 pm 12:53 Sunny 80 26.7 67 19.4 64 64 NNE 3 6 29.87 1011 10 16 N/A
1:53 pm 13:53 Mostly Cloudy 82 27.8 67 19.4 60 60 VRB 5 7 29.86 1011 10 16 N/A
2:53 pm 14:53 Partly Cloudy 85 29.4 66 18.9 53 53 N 5 7 29.85 1011 10 16 N/A
3:53 pm 15:53 Sunny 85 29.4 67 19.4 55 55 E 6 9 29.83 1010 10 16 N/A
4:53 pm 16:53 Partly Cloudy 85 29.4 67 19.4 55 55 E 7 11 29.82 1010 10 16 N/A
5:53 pm 17:53 Mostly Sunny 84 28.9 66 18.9 55 55 E 5 7 29.81 1010 10 16 N/A
6:53 pm 18:53 Sunny 82 27.8 66 18.9 58 58 ENE 7 11 29.82 1010 10 16 N/A
7:53 pm 19:53 Sunny 80 26.7 66 18.9 62 62 ENE 6 9 29.83 1010 10 16 N/A
8:53 pm 20:53 Sunny 77 25 66 18.9 69 69 NNE 3 6 29.83 1010 10 16 N/A
9:53 pm 21:53 Mostly Clear 77 25 64 17.8 64 64 ENE 6 9 29.83 1010 10 16 N/A
10:53 pm 22:53 Clear 76 24.4 64 17.8 67 67 ENE 9 15 29.86 1011 10 16 N/A
11:53 pm 23:53 Mostly Clear 74 23.3 65 18.3 74 74 ENE 7 11 29.86 1011 10 16 N/A

Powered by AerisWeather